�������C�����ː����j�^�v���󋵏��
Date,Time,Cs137(Bq/L),Cs134(Bq/L),�S��(Bq/L)
2018/01/19,00:00,0.44,ND,ND
2018/01/19,00:10,0.44,ND,ND
2018/01/19,00:20,0.45,ND,8.8
2018/01/19,00:30,0.42,ND,ND
2018/01/19,00:40,0.43,ND,ND
2018/01/19,00:50,0.43,ND,9.3
2018/01/19,01:00,0.39,0.026,ND
2018/01/19,01:10,0.41,ND,8.9
2018/01/19,01:20,0.40,ND,ND
2018/01/19,01:30,0.43,ND,9.9
2018/01/19,01:40,0.42,ND,9.0
2018/01/19,01:50,0.42,ND,ND
2018/01/19,02:00,0.45,ND,ND
2018/01/19,02:10,0.45,ND,ND
2018/01/19,02:20,0.44,ND,ND
2018/01/19,02:30,0.42,ND,ND
2018/01/19,02:40,0.43,ND,ND
2018/01/19,02:50,0.43,ND,ND
2018/01/19,03:00,0.37,0.028,ND
2018/01/19,03:10,0.40,ND,ND
2018/01/19,03:20,0.40,ND,ND
2018/01/19,03:30,0.41,ND,ND
2018/01/19,03:40,0.41,ND,ND
2018/01/19,03:50,0.41,ND,ND
2018/01/19,04:00,0.42,ND,ND
2018/01/19,04:10,0.41,ND,ND
2018/01/19,04:20,0.42,ND,ND
2018/01/19,04:30,0.39,ND,ND
2018/01/19,04:40,0.40,ND,ND
2018/01/19,04:50,0.40,ND,ND
2018/01/19,05:00,0.37,ND,ND
2018/01/19,05:10,0.37,ND,ND
2018/01/19,05:20,0.36,ND,ND
2018/01/19,05:30,0.36,ND,ND
2018/01/19,05:40,0.33,ND,ND
2018/01/19,05:50,0.31,ND,ND
2018/01/19,06:00,0.32,ND,ND
2018/01/19,06:10,0.33,ND,ND
2018/01/19,06:20,0.32,ND,ND
2018/01/19,06:30,0.35,ND,ND
2018/01/19,06:40,0.37,ND,ND
2018/01/19,06:50,0.38,ND,ND
2018/01/19,07:00,0.40,ND,ND
2018/01/19,07:10,0.42,ND,ND
2018/01/19,07:20,0.44,ND,ND
2018/01/19,07:30,0.41,0.029,ND
2018/01/19,07:40,0.41,0.033,ND
2018/01/19,07:50,0.42,0.033,ND
2018/01/19,08:00,0.43,0.028,ND
2018/01/19,08:10,0.48,ND,ND
2018/01/19,08:20,0.43,0.033,ND
2018/01/19,08:30,0.42,0.031,ND
2018/01/19,08:40,0.43,0.031,ND
2018/01/19,08:50,0.47,ND,ND
2018/01/19,09:00,0.46,ND,ND
2018/01/19,09:10,0.46,ND,ND
2018/01/19,09:20,0.44,ND,ND
2018/01/19,09:30,0.44,ND,ND
2018/01/19,09:40,0.43,ND,ND
2018/01/19,09:50,0.44,ND,ND
2018/01/19,10:00,0.44,ND,ND
2018/01/19,10:10,0.43,ND,ND
2018/01/19,10:20,0.43,ND,ND
2018/01/19,10:30,0.42,ND,ND
2018/01/19,10:40,0.43,ND,ND
2018/01/19,10:50,0.42,ND,ND
2018/01/19,11:00,0.42,ND,ND
2018/01/19,11:10,0.41,ND,ND
2018/01/19,11:20,0.42,ND,ND
2018/01/19,11:30,0.41,ND,ND
2018/01/19,11:40,0.40,ND,ND
2018/01/19,11:50,0.42,ND,ND
2018/01/19,12:00,0.43,ND,ND
2018/01/19,12:10,0.43,ND,ND
2018/01/19,12:20,0.44,ND,ND
2018/01/19,12:30,0.42,ND,ND
2018/01/19,12:40,0.42,ND,ND
2018/01/19,12:50,0.40,ND,ND
2018/01/19,13:00,0.48,ND,ND
2018/01/19,13:10,0.49,ND,10
2018/01/19,13:20,0.49,ND,ND
2018/01/19,13:30,0.51,ND,ND
2018/01/19,13:40,0.41,ND,ND
2018/01/19,13:50,0.43,ND,ND
2018/01/19,14:00,0.42,ND,ND
2018/01/19,14:10,0.42,ND,ND
2018/01/19,14:20,0.39,ND,ND
2018/01/19,14:30,0.40,ND,ND
2018/01/19,14:40,0.40,ND,ND
2018/01/19,14:50,0.37,ND,ND
2018/01/19,15:00,0.36,ND,ND
2018/01/19,15:10,0.35,ND,ND
2018/01/19,15:20,0.36,ND,ND
2018/01/19,15:30,0.36,ND,11
2018/01/19,15:40,0.35,ND,12
2018/01/19,15:50,0.36,ND,12
2018/01/19,16:00,0.34,ND,11
2018/01/19,16:10,0.35,ND,12
2018/01/19,16:20,0.35,ND,12
2018/01/19,16:30,0.36,ND,10
2018/01/19,16:40,0.36,ND,10
2018/01/19,16:50,0.44,ND,10
2018/01/19,17:00,0.38,ND,12
2018/01/19,17:10,0.48,ND,9.3
2018/01/19,17:20,0.45,ND,8.9
2018/01/19,17:30,0.46,ND,ND
2018/01/19,17:40,0.39,ND,ND
2018/01/19,17:50,0.40,ND,ND
2018/01/19,18:00,0.50,ND,ND
2018/01/19,18:10,0.49,ND,ND
2018/01/19,18:20,0.52,ND,ND
2018/01/19,18:30,0.52,ND,ND
2018/01/19,18:40,0.45,ND,ND
2018/01/19,18:50,0.47,ND,ND
2018/01/19,19:00,0.45,ND,ND
2018/01/19,19:10,0.47,ND,ND
2018/01/19,19:20,0.49,ND,ND
2018/01/19,19:30,0.48,ND,ND
2018/01/19,19:40,0.47,ND,ND
2018/01/19,19:50,0.49,ND,ND
2018/01/19,20:00,0.49,ND,ND
2018/01/19,20:10,0.49,ND,ND
2018/01/19,20:20,0.48,ND,ND
2018/01/19,20:30,0.51,ND,ND
2018/01/19,20:40,0.48,0.027,ND
2018/01/19,20:50,0.47,0.031,10
2018/01/19,21:00,0.48,0.028,11
2018/01/19,21:10,0.50,0.025,10
2018/01/19,21:20,0.48,0.034,10
2018/01/19,21:30,0.49,0.029,10
2018/01/19,21:40,0.51,ND,ND
2018/01/19,21:50,0.50,ND,ND
2018/01/19,22:00,0.47,ND,ND
2018/01/19,22:10,0.46,ND,9.7
2018/01/19,22:20,0.42,ND,9.9
2018/01/19,22:30,0.39,ND,9.3
2018/01/19,22:40,0.38,ND,10
2018/01/19,22:50,0.36,ND,11
2018/01/19,23:00,0.37,ND,ND
2018/01/19,23:10,0.35,ND,ND
2018/01/19,23:20,0.37,ND,ND
2018/01/19,23:30,0.37,ND,ND
2018/01/19,23:40,0.37,ND,ND
2018/01/19,23:50,0.37,ND,ND
